Simultaneous Nadir Overpasses (SNOs) Predictions

Prediction of SNOs between NOAA-19 and METOP-C Satellite Orbit:

Table of predicted SNOs for the next 14.0 days since TLE Epoch: 2/1/2020
Index Date (NOAA-19) Time (NOAA-19) Lat,Lon (NOAA-19) SZA (NOAA-19 ) Date (METOP-C) Time (METOP-C) Lat,Lon (METOP-C) SZA (METOP-C ) Distance(km) Time Diff (sec)
1 02/05/2020 05:11:28 79.77, 122.28 96.21 02/05/2020 05:12:33 79.75, 122.16 96.20 3.13 65
2 02/05/2020 06:02:28 -79.78, -70.56 83.80 02/05/2020 06:03:15 -79.75, -70.52 83.82 3.10 47
3 02/05/2020 06:53:28 79.75, 96.98 96.18 02/05/2020 06:53:53 79.77, 97.03 96.21 2.68 25
4 02/05/2020 07:44:28 -79.76, -95.86 83.83 02/05/2020 07:44:36 -79.74, -95.93 83.85 2.43 8
5 02/05/2020 08:35:29 79.76, 71.38 96.16 02/05/2020 08:35:15 79.73, 71.34 96.13 3.04 14
6 02/05/2020 09:26:28 -79.74,-121.15 83.86 02/05/2020 09:25:56 -79.76,-121.06 83.84 3.22 32
7 02/05/2020 10:17:29 79.74, 46.08 96.13 02/05/2020 10:16:35 79.76, 46.21 96.14 2.98 54




NCC Satellite Simultaneous Nadir Overpasses (SNOs) Prediction Service
